Flag for U.S.A. Weather past 2 weeks in Fort Collins, Colorado, U.S.A.

Now
61 °F

Clear.


Feels Like: 61 °F
Forecast: 48 / 84 °F
Wind: No wind

Location: Fort Collins-Loveland Municipal Airport

Current Time: Sep 15, 2014 at 9:34:22 PM

Latest Report: Sep 15, 2014 at 8:55 PM


Visibility: 10 mi

Pressure: 30.25 "Hg

Humidity: 63%

Dew point: 48 °F

Location of Fort CollinsLocation

Historic Weather in Fort Collins — Graph

°F

Fort Collins temperature yesterday

Maximum temperature yesterday: 86 °F (at 1:35 PM)
Minimum temperature yesterday: 43 °F (at 6:35 AM)
Average temperature yesterday: 62 °F

Past Weeks' High & Low Weather Summary

 TemperatureHumidityPressure
High95 °F (Sep 3, 2:55 PM)94% (Sep 5, 8:15 PM)30.52 "Hg (Sep 5, 8:15 PM)
Low32 °F (Sep 13, 6:15 AM)12% (Sep 3, 2:55 PM)29.76 "Hg (Sep 3, 5:15 PM)
Average60 °F64%30.14 "Hg
* Reported Aug 31 8:15 PM — Sep 15 8:35 PM, Fort Collins, Weather by CustomWeather, © 2014

Note: Actual official high and low records may vary slightly from our data, if they occured in-between our weather recording intervals... More about our weather records

Advertising

Fort Collins weather history for previous 24 hours

 ConditionsComfort  
Time TempWeatherWind HumidityBarometerVisibility
8:35 PM
Sep 15
61 °FClear.No wind63%30.25 "Hg10 mi
8:15 PM63 °FClear.No wind59%30.25 "Hg10 mi
7:55 PM63 °FSunny.3 mph59%30.24 "Hg10 mi
7:15 PM64 °FSunny.5 mph49%30.23 "Hg10 mi
6:55 PM66 °FSunny.5 mph46%30.24 "Hg10 mi
6:35 PM70 °FSunny.5 mph40%30.24 "Hg10 mi
6:15 PM70 °FSunny.6 mph40%30.24 "Hg10 mi
5:55 PM70 °FSunny.8 mph40%30.24 "Hg10 mi
5:35 PM70 °FSunny.6 mph40%30.24 "Hg10 mi
5:15 PM70 °FSunny.8 mph40%30.25 "Hg10 mi
4:55 PM70 °FSunny.9 mph40%30.24 "Hg10 mi
4:35 PM68 °FSunny.7 mph43%30.26 "Hg10 mi
4:15 PM70 °FSunny.5 mph40%30.26 "Hg10 mi
3:55 PM70 °FSunny.6 mph40%30.26 "Hg5 mi
3:35 PM70 °FSunny.8 mph38%30.27 "Hg10 mi
3:15 PM70 °FSunny.7 mph38%30.28 "Hg10 mi
2:55 PM70 °FSunny.10 mph38%30.28 "Hg10 mi
2:35 PM68 °FSunny.7 mph40%30.29 "Hg10 mi
2:15 PM66 °FSunny.9 mph43%30.29 "Hg10 mi
1:55 PM68 °FSunny.8 mph40%30.31 "Hg10 mi
1:35 PM66 °FSunny.7 mph37%30.31 "Hg10 mi
1:15 PM66 °FSunny.7 mph43%30.32 "Hg10 mi
12:55 PM66 °FSunny.6 mph43%30.32 "Hg10 mi
12:35 PM64 °FSunny.8 mph49%30.33 "Hg10 mi
11:55 AM63 °FSunny.6 mph52%30.34 "Hg10 mi
11:35 AM61 °FSunny.7 mph59%30.35 "Hg10 mi
11:15 AM59 °FSunny.6 mph63%30.36 "Hg10 mi
10:55 AM57 °FSunny.6 mph67%30.36 "Hg10 mi
10:35 AM55 °FSunny.6 mph67%30.36 "Hg10 mi
10:15 AM55 °FSunny.No wind67%30.37 "Hg10 mi
9:55 AM54 °FSunny.No wind72%30.37 "Hg10 mi
9:35 AM54 °FSunny.6 mph72%30.37 "Hg10 mi
9:15 AM52 °FSunny.No wind77%30.38 "Hg10 mi
8:55 AM50 °FSunny.5 mph82%30.38 "Hg10 mi
8:15 AM48 °FSunny.6 mph87%30.37 "Hg10 mi
7:55 AM48 °FSunny.7 mph87%30.36 "Hg10 mi
7:35 AM46 °FClear.6 mph87%30.36 "Hg10 mi
7:15 AM45 °FClear.5 mph93%30.36 "Hg10 mi
6:55 AM45 °FClear.6 mph87%30.35 "Hg10 mi
6:35 AM46 °FClear.9 mph87%30.34 "Hg10 mi
5:55 AM46 °FClear.9 mph87%30.33 "Hg10 mi
5:35 AM46 °FClear.7 mph87%30.32 "Hg10 mi
5:15 AM46 °FClear.10 mph87%30.31 "Hg10 mi
4:55 AM48 °FClear.9 mph82%30.29 "Hg10 mi
4:35 AM48 °FClear.9 mph82%30.29 "Hg10 mi
4:15 AM48 °FClear.7 mph82%30.28 "Hg10 mi
3:55 AM52 °FClear.No wind77%30.27 "Hg10 mi
3:35 AM54 °FClear.3 mph72%30.25 "Hg10 mi
3:15 AM52 °FClear.5 mph77%30.25 "Hg10 mi
2:55 AM52 °FClear.7 mph77%30.24 "Hg10 mi
2:35 AM52 °FClear.7 mph77%30.24 "Hg10 mi
2:15 AM54 °FClear.7 mph72%30.24 "Hg10 mi
1:55 AM54 °FClear.8 mph72%30.23 "Hg10 mi
1:35 AM54 °FClear.10 mph77%30.22 "Hg10 mi
1:15 AM55 °FClear.14 mph72%30.22 "Hg10 mi
12:55 AM55 °FClear.12 mph72%30.21 "Hg10 mi
12:35 AM55 °FClear.10 mph72%30.20 "Hg10 mi
12:15 AM55 °FClear.12 mph72%30.20 "Hg10 mi
11:55 PM
Sep 14
57 °FClear.12 mph67%30.19 "Hg10 mi
11:35 PM57 °FClear.9 mph67%30.19 "Hg10 mi
11:15 PM57 °FClear.10 mph72%30.17 "Hg10 mi
10:55 PM59 °FClear.10 mph68%30.16 "Hg10 mi
10:35 PM59 °FClear.12 mph63%30.15 "Hg10 mi
10:15 PM61 °FClear.12 mph59%30.12 "Hg10 mi
9:55 PM64 °FClear.15 mph49%30.11 "Hg10 mi
9:35 PM70 °FClear.3 mph33%30.08 "Hg10 mi
9:15 PM68 °FClear.5 mph40%30.08 "Hg10 mi
Weather by CustomWeather, © 2014

See weather overviewHow to use our weather pages